Year,Month,Day,Hour,Minute,Value (Times are PST for temperature in C)
2014,09,20,00,00,15.60
2014,09,20,00,01,15.60
2014,09,20,00,02,15.60
2014,09,20,00,03,15.60
2014,09,20,00,04,15.50
2014,09,20,00,05,15.50
2014,09,20,00,06,15.40
2014,09,20,00,07,15.40
2014,09,20,00,08,15.40
2014,09,20,00,09,15.40
2014,09,20,00,10,15.30
2014,09,20,00,11,15.30
2014,09,20,00,12,15.30
2014,09,20,00,13,15.30
2014,09,20,00,14,15.30
2014,09,20,00,15,15.30
2014,09,20,00,16,15.30
2014,09,20,00,17,15.30
2014,09,20,00,18,15.30
2014,09,20,00,19,15.30
2014,09,20,00,20,15.20
2014,09,20,00,21,15.20
2014,09,20,00,22,15.20
2014,09,20,00,23,15.20
2014,09,20,00,24,15.20
2014,09,20,00,25,15.20
2014,09,20,00,26,15.10
2014,09,20,00,27,15.10
2014,09,20,00,28,15.10
2014,09,20,00,29,15.10
2014,09,20,00,30,15.10
2014,09,20,00,31,15.00
2014,09,20,00,32,15.00
2014,09,20,00,33,15.00
2014,09,20,00,34,15.00
2014,09,20,00,35,15.00
2014,09,20,00,36,14.90
2014,09,20,00,37,14.90
2014,09,20,00,38,14.90
2014,09,20,00,39,14.90
2014,09,20,00,40,14.90
2014,09,20,00,41,14.90
2014,09,20,00,42,14.90
2014,09,20,00,43,14.90
2014,09,20,00,44,14.90
2014,09,20,00,45,14.90
2014,09,20,00,46,14.90
2014,09,20,00,47,14.90
2014,09,20,00,48,14.90
2014,09,20,00,49,14.90
2014,09,20,00,50,14.90
2014,09,20,00,51,14.90
2014,09,20,00,52,14.90
2014,09,20,00,53,14.90
2014,09,20,00,54,14.90
2014,09,20,00,55,14.90
2014,09,20,00,56,14.90
2014,09,20,00,57,14.90
2014,09,20,00,58,14.90
2014,09,20,00,59,14.90
2014,09,20,01,00,14.90
2014,09,20,01,01,14.90
2014,09,20,01,02,14.90
2014,09,20,01,03,14.80
2014,09,20,01,04,14.80
2014,09,20,01,05,14.80
2014,09,20,01,06,14.80
2014,09,20,01,07,14.80
2014,09,20,01,08,14.80
2014,09,20,01,09,14.80
2014,09,20,01,10,14.90
2014,09,20,01,11,14.80
2014,09,20,01,12,14.90
2014,09,20,01,13,14.90
2014,09,20,01,14,14.90
2014,09,20,01,15,14.80
2014,09,20,01,16,14.90
2014,09,20,01,17,14.80
2014,09,20,01,18,14.80
2014,09,20,01,19,14.80
2014,09,20,01,20,14.90
2014,09,20,01,21,14.90
2014,09,20,01,22,14.90
2014,09,20,01,23,14.80
2014,09,20,01,24,14.80
2014,09,20,01,25,14.80
2014,09,20,01,26,14.80
2014,09,20,01,27,14.80
2014,09,20,01,28,14.80
2014,09,20,01,29,14.80
2014,09,20,01,30,14.80
2014,09,20,01,31,14.80
2014,09,20,01,32,14.80
2014,09,20,01,33,14.80
2014,09,20,01,34,14.80
2014,09,20,01,35,14.90
2014,09,20,01,36,14.90
2014,09,20,01,37,14.80
2014,09,20,01,38,14.80
2014,09,20,01,39,14.90
2014,09,20,01,40,14.90
2014,09,20,01,41,14.90
2014,09,20,01,42,14.90
2014,09,20,01,43,14.90
2014,09,20,01,44,14.90
2014,09,20,01,45,14.90
2014,09,20,01,46,14.90
2014,09,20,01,47,14.90
2014,09,20,01,48,14.90
2014,09,20,01,49,14.90
2014,09,20,01,50,14.90
2014,09,20,01,51,14.90
2014,09,20,01,52,14.90
2014,09,20,01,53,14.80
2014,09,20,01,54,14.80
2014,09,20,01,55,14.80
2014,09,20,01,56,14.80
2014,09,20,01,57,14.80
2014,09,20,01,58,14.80
2014,09,20,01,59,14.80
2014,09,20,02,00,14.80
2014,09,20,02,01,14.80
2014,09,20,02,02,14.80
2014,09,20,02,03,14.80
2014,09,20,02,04,14.80
2014,09,20,02,05,14.80
2014,09,20,02,06,14.80
2014,09,20,02,07,14.80
2014,09,20,02,08,14.80
2014,09,20,02,09,14.80
2014,09,20,02,10,14.80
2014,09,20,02,11,14.80
2014,09,20,02,12,14.70
2014,09,20,02,13,14.70
2014,09,20,02,14,14.70
2014,09,20,02,15,14.70
2014,09,20,02,16,14.70
2014,09,20,02,17,14.60
2014,09,20,02,18,14.60
2014,09,20,02,19,14.60
2014,09,20,02,20,14.60
2014,09,20,02,21,14.60
2014,09,20,02,22,14.60
2014,09,20,02,23,14.60
2014,09,20,02,24,14.60
2014,09,20,02,25,14.60
2014,09,20,02,26,14.60
2014,09,20,02,27,14.60
2014,09,20,02,28,14.60
2014,09,20,02,29,14.60
2014,09,20,02,30,14.60
2014,09,20,02,31,14.60
2014,09,20,02,32,14.60
2014,09,20,02,33,14.60
2014,09,20,02,34,14.70
2014,09,20,02,35,14.70
2014,09,20,02,36,14.70
2014,09,20,02,37,14.70
2014,09,20,02,38,14.70
2014,09,20,02,39,14.70
2014,09,20,02,40,14.70
2014,09,20,02,41,14.80
2014,09,20,02,42,14.80
2014,09,20,02,43,14.80
2014,09,20,02,44,14.80
2014,09,20,02,45,14.80
2014,09,20,02,46,14.80
2014,09,20,02,47,14.80
2014,09,20,02,48,14.80
2014,09,20,02,49,14.80
2014,09,20,02,50,14.80
2014,09,20,02,51,14.80
2014,09,20,02,52,14.80
2014,09,20,02,53,14.80
2014,09,20,02,54,14.80
2014,09,20,02,55,14.80
2014,09,20,02,56,14.80
2014,09,20,02,57,14.80
2014,09,20,02,58,14.80
2014,09,20,02,59,14.80
2014,09,20,03,00,14.80
2014,09,20,03,01,14.80
2014,09,20,03,02,14.80
2014,09,20,03,03,14.80
2014,09,20,03,04,14.80
2014,09,20,03,05,14.80
2014,09,20,03,06,14.80
2014,09,20,03,07,14.70
2014,09,20,03,08,14.70
2014,09,20,03,09,14.70
2014,09,20,03,10,14.70
2014,09,20,03,11,14.70
2014,09,20,03,12,14.70
2014,09,20,03,13,14.70
2014,09,20,03,14,14.70
2014,09,20,03,15,14.70
2014,09,20,03,16,14.70
2014,09,20,03,17,14.70
2014,09,20,03,18,14.70
2014,09,20,03,19,14.70
2014,09,20,03,20,14.60
2014,09,20,03,21,14.60
2014,09,20,03,22,14.60
2014,09,20,03,23,14.60
2014,09,20,03,24,14.60
2014,09,20,03,25,14.50
2014,09,20,03,26,14.60
2014,09,20,03,27,14.60
2014,09,20,03,28,14.60
2014,09,20,03,29,14.60
2014,09,20,03,30,14.60
2014,09,20,03,31,14.60
2014,09,20,03,32,14.60
2014,09,20,03,33,14.60
2014,09,20,03,34,14.60
2014,09,20,03,35,14.60
2014,09,20,03,36,14.60
2014,09,20,03,37,14.60
2014,09,20,03,38,14.60
2014,09,20,03,39,14.60
2014,09,20,03,40,14.60
2014,09,20,03,41,14.60
2014,09,20,03,42,14.60
2014,09,20,03,43,14.60
2014,09,20,03,44,14.60
2014,09,20,03,45,14.70
2014,09,20,03,46,14.70
2014,09,20,03,47,14.70
2014,09,20,03,48,14.60
2014,09,20,03,49,14.60
2014,09,20,03,50,14.50
2014,09,20,03,51,14.30
2014,09,20,03,52,14.10
2014,09,20,03,53,14.00
2014,09,20,03,54,13.90
2014,09,20,03,55,13.80
2014,09,20,03,56,13.70
2014,09,20,03,57,13.60
2014,09,20,03,58,13.50
2014,09,20,03,59,13.40
2014,09,20,04,00,13.30
2014,09,20,04,01,13.30
2014,09,20,04,02,13.20
2014,09,20,04,03,13.10
2014,09,20,04,04,13.10
2014,09,20,04,05,13.00
2014,09,20,04,06,13.00
2014,09,20,04,07,13.00
2014,09,20,04,08,12.90
2014,09,20,04,09,12.90
2014,09,20,04,10,12.90
2014,09,20,04,11,12.90
2014,09,20,04,12,12.90
2014,09,20,04,13,12.90
2014,09,20,04,14,12.90
2014,09,20,04,15,12.90
2014,09,20,04,16,13.00
2014,09,20,04,17,13.00
2014,09,20,04,18,13.00
2014,09,20,04,19,13.00
2014,09,20,04,20,13.00
2014,09,20,04,21,13.10
2014,09,20,04,22,13.10
2014,09,20,04,23,13.10
2014,09,20,04,24,13.10
2014,09,20,04,25,13.10
2014,09,20,04,26,13.20
2014,09,20,04,27,13.20
2014,09,20,04,28,13.20
2014,09,20,04,29,13.20
2014,09,20,04,30,13.20
2014,09,20,04,31,13.20
2014,09,20,04,32,13.30
2014,09,20,04,33,13.30
2014,09,20,04,34,13.30
2014,09,20,04,35,13.30
2014,09,20,04,36,13.40
2014,09,20,04,37,13.50
2014,09,20,04,38,13.60
2014,09,20,04,39,13.70
2014,09,20,04,40,13.80
2014,09,20,04,41,13.80
2014,09,20,04,42,13.80
2014,09,20,04,43,13.80
2014,09,20,04,44,13.90
2014,09,20,04,45,13.90
2014,09,20,04,46,13.90
2014,09,20,04,47,13.90
2014,09,20,04,48,13.90
2014,09,20,04,49,13.90
2014,09,20,04,50,14.00
2014,09,20,04,51,14.00
2014,09,20,04,52,14.10
2014,09,20,04,53,14.10
2014,09,20,04,54,14.20
2014,09,20,04,55,14.20
2014,09,20,04,56,14.20
2014,09,20,04,57,14.20
2014,09,20,04,58,14.30
2014,09,20,04,59,14.30
2014,09,20,05,00,14.30
2014,09,20,05,01,14.30
2014,09,20,05,02,14.30
2014,09,20,05,03,14.30
2014,09,20,05,04,14.20
2014,09,20,05,05,14.20
2014,09,20,05,06,14.20
2014,09,20,05,07,14.10
2014,09,20,05,08,14.00
2014,09,20,05,09,14.00
2014,09,20,05,10,13.90
2014,09,20,05,11,13.80
2014,09,20,05,12,13.80
2014,09,20,05,13,13.80
2014,09,20,05,14,13.80
2014,09,20,05,15,13.70
2014,09,20,05,16,13.70
2014,09,20,05,17,13.70
2014,09,20,05,18,13.70
2014,09,20,05,19,13.70
2014,09,20,05,20,13.70
2014,09,20,05,21,13.70
2014,09,20,05,22,13.70
2014,09,20,05,23,13.70
2014,09,20,05,24,13.80
2014,09,20,05,25,13.80
2014,09,20,05,26,13.80
2014,09,20,05,27,13.80
2014,09,20,05,28,13.80
2014,09,20,05,29,13.70
2014,09,20,05,30,13.70
2014,09,20,05,31,13.70
2014,09,20,05,32,13.70
2014,09,20,05,33,13.70
2014,09,20,05,34,13.70
2014,09,20,05,35,13.70
2014,09,20,05,36,13.60
2014,09,20,05,37,13.60
2014,09,20,05,38,13.60
2014,09,20,05,39,13.60
2014,09,20,05,40,13.60
2014,09,20,05,41,13.60
2014,09,20,05,42,13.60
2014,09,20,05,43,13.60
2014,09,20,05,44,13.60
2014,09,20,05,45,13.60
2014,09,20,05,46,13.60
2014,09,20,05,47,13.60
2014,09,20,05,48,13.60
2014,09,20,05,49,13.60
2014,09,20,05,50,13.60
2014,09,20,05,51,13.60
2014,09,20,05,52,13.60
2014,09,20,05,53,13.60
2014,09,20,05,54,13.60
2014,09,20,05,55,13.60
2014,09,20,05,56,13.60
2014,09,20,05,57,13.60
2014,09,20,05,58,13.60
2014,09,20,05,59,13.60
2014,09,20,06,00,13.60
2014,09,20,06,01,13.60
2014,09,20,06,02,13.70
2014,09,20,06,03,13.70
2014,09,20,06,04,13.60
2014,09,20,06,05,13.70
2014,09,20,06,06,13.70
2014,09,20,06,07,13.70
2014,09,20,06,08,13.70
2014,09,20,06,09,13.70
2014,09,20,06,10,13.70
2014,09,20,06,11,13.70
2014,09,20,06,12,13.70
2014,09,20,06,13,13.70
2014,09,20,06,14,13.70
2014,09,20,06,15,13.70
2014,09,20,06,16,13.70
2014,09,20,06,17,13.70
2014,09,20,06,18,13.70
2014,09,20,06,19,13.70
2014,09,20,06,20,13.70
2014,09,20,06,21,13.70
2014,09,20,06,22,13.70
2014,09,20,06,23,13.70
2014,09,20,06,24,13.70
2014,09,20,06,25,13.70
2014,09,20,06,26,13.70
2014,09,20,06,27,13.70
2014,09,20,06,28,13.70
2014,09,20,06,29,13.60
2014,09,20,06,30,13.60
2014,09,20,06,31,13.60
2014,09,20,06,32,13.60
2014,09,20,06,33,13.60
2014,09,20,06,34,13.60
2014,09,20,06,35,13.60
2014,09,20,06,36,13.50
2014,09,20,06,37,13.50
2014,09,20,06,38,13.50
2014,09,20,06,39,13.50
2014,09,20,06,40,13.50
2014,09,20,06,41,13.50
2014,09,20,06,42,13.50
2014,09,20,06,43,13.50
2014,09,20,06,44,13.50
2014,09,20,06,45,13.50
2014,09,20,06,46,13.50
2014,09,20,06,47,13.50
2014,09,20,06,48,13.50
2014,09,20,06,49,13.50
2014,09,20,06,50,13.60
2014,09,20,06,51,13.60
2014,09,20,06,52,13.60
2014,09,20,06,53,13.60
2014,09,20,06,54,13.60
2014,09,20,06,55,13.60
2014,09,20,06,56,13.60
2014,09,20,06,57,13.60
2014,09,20,06,58,13.60
2014,09,20,06,59,13.70
2014,09,20,07,00,13.70
2014,09,20,07,01,13.70
2014,09,20,07,02,13.70
2014,09,20,07,03,13.70
2014,09,20,07,04,13.70
2014,09,20,07,05,13.70
2014,09,20,07,06,13.70
2014,09,20,07,07,13.70
2014,09,20,07,08,13.70
2014,09,20,07,09,13.70
2014,09,20,07,10,13.70
2014,09,20,07,11,13.80
2014,09,20,07,12,13.80
2014,09,20,07,13,13.80
2014,09,20,07,14,13.80
2014,09,20,07,15,13.80
2014,09,20,07,16,13.80
2014,09,20,07,17,13.80
2014,09,20,07,18,13.80
2014,09,20,07,19,13.80
2014,09,20,07,20,13.90
2014,09,20,07,21,13.90
2014,09,20,07,22,13.90
2014,09,20,07,23,13.90
2014,09,20,07,24,14.00
2014,09,20,07,25,14.10
2014,09,20,07,26,14.10
2014,09,20,07,27,14.10
2014,09,20,07,28,14.20
2014,09,20,07,29,14.30
2014,09,20,07,30,14.40
2014,09,20,07,31,14.40
2014,09,20,07,32,14.40
2014,09,20,07,33,14.50
2014,09,20,07,34,14.50
2014,09,20,07,35,14.50
2014,09,20,07,36,14.60
2014,09,20,07,37,14.60
2014,09,20,07,38,14.60
2014,09,20,07,39,14.60
2014,09,20,07,40,14.70
2014,09,20,07,41,14.80
2014,09,20,07,42,15.00
2014,09,20,07,43,15.10
2014,09,20,07,44,15.20
2014,09,20,07,45,15.20
2014,09,20,07,46,15.20
2014,09,20,07,47,15.30
2014,09,20,07,48,15.40
2014,09,20,07,49,15.40
2014,09,20,07,50,15.50
2014,09,20,07,51,15.50
2014,09,20,07,52,15.60
2014,09,20,07,53,15.60
2014,09,20,07,54,15.60
2014,09,20,07,55,15.60
2014,09,20,07,56,15.60
2014,09,20,07,57,15.60
2014,09,20,07,58,15.70
2014,09,20,07,59,15.70
2014,09,20,08,00,15.70
2014,09,20,08,01,15.80
2014,09,20,08,02,15.80
2014,09,20,08,03,15.80
2014,09,20,08,04,15.80
2014,09,20,08,05,15.90
2014,09,20,08,06,15.90
2014,09,20,08,07,15.90
2014,09,20,08,08,15.90
2014,09,20,08,09,15.90
2014,09,20,08,10,15.90
2014,09,20,08,11,15.90
2014,09,20,08,12,16.00
2014,09,20,08,13,16.00
2014,09,20,08,14,16.00
2014,09,20,08,15,16.00
2014,09,20,08,16,16.00
2014,09,20,08,17,16.00
2014,09,20,08,18,16.00
2014,09,20,08,19,16.10
2014,09,20,08,20,16.10
2014,09,20,08,21,16.10
2014,09,20,08,22,16.10
2014,09,20,08,23,16.10
2014,09,20,08,24,16.10
2014,09,20,08,25,16.10
2014,09,20,08,26,16.10
2014,09,20,08,27,16.10
2014,09,20,08,28,16.20
2014,09,20,08,29,16.20
2014,09,20,08,30,16.20
2014,09,20,08,31,16.20
2014,09,20,08,32,16.20
2014,09,20,08,33,16.20
2014,09,20,08,34,16.20
2014,09,20,08,35,16.20
2014,09,20,08,36,16.20
2014,09,20,08,37,16.20
2014,09,20,08,38,16.20
2014,09,20,08,39,16.20
2014,09,20,08,40,16.20
2014,09,20,08,41,16.20
2014,09,20,08,42,16.20
2014,09,20,08,43,16.20
2014,09,20,08,44,16.20
2014,09,20,08,45,16.20
2014,09,20,08,46,16.20
2014,09,20,08,47,16.30
2014,09,20,08,48,16.30
2014,09,20,08,49,16.30
2014,09,20,08,50,16.30
2014,09,20,08,51,16.30
2014,09,20,08,52,16.30
2014,09,20,08,53,16.30
2014,09,20,08,54,16.30
2014,09,20,08,55,16.30
2014,09,20,08,56,16.30
2014,09,20,08,57,16.30
2014,09,20,08,58,16.30
2014,09,20,08,59,16.30
2014,09,20,09,00,16.30
2014,09,20,09,01,16.30
2014,09,20,09,02,16.30
2014,09,20,09,03,16.30
2014,09,20,09,04,16.40
2014,09,20,09,05,16.40
2014,09,20,09,06,16.50
2014,09,20,09,07,16.50
2014,09,20,09,08,16.50
2014,09,20,09,09,16.60
2014,09,20,09,10,16.60
2014,09,20,09,11,16.70
2014,09,20,09,12,16.70
2014,09,20,09,13,16.80
2014,09,20,09,14,16.80
2014,09,20,09,15,16.90
2014,09,20,09,16,17.00
2014,09,20,09,17,17.00
2014,09,20,09,18,17.10
2014,09,20,09,19,17.10
2014,09,20,09,20,17.10
2014,09,20,09,21,17.10
2014,09,20,09,22,17.20
2014,09,20,09,23,17.20
2014,09,20,09,24,17.20
2014,09,20,09,25,17.20
2014,09,20,09,26,17.20
2014,09,20,09,27,17.20
2014,09,20,09,28,17.30
2014,09,20,09,29,17.30
2014,09,20,09,30,17.30
2014,09,20,09,31,17.30
2014,09,20,09,32,17.30
2014,09,20,09,33,17.30
2014,09,20,09,34,17.20
2014,09,20,09,35,17.20
2014,09,20,09,36,17.30
2014,09,20,09,37,17.30
2014,09,20,09,38,17.30
2014,09,20,09,39,17.40
2014,09,20,09,40,17.50
2014,09,20,09,41,17.50
2014,09,20,09,42,17.50
2014,09,20,09,43,17.50
2014,09,20,09,44,17.50
2014,09,20,09,45,17.60
2014,09,20,09,46,17.70
2014,09,20,09,47,17.70
2014,09,20,09,48,17.70
2014,09,20,09,49,17.70
2014,09,20,09,50,17.70
2014,09,20,09,51,17.80
2014,09,20,09,52,17.80
2014,09,20,09,53,17.90
2014,09,20,09,54,18.00
2014,09,20,09,55,18.00
2014,09,20,09,56,18.10
2014,09,20,09,57,18.10
2014,09,20,09,58,18.00
2014,09,20,09,59,18.00
2014,09,20,10,00,18.10
2014,09,20,10,01,18.10
2014,09,20,10,02,18.10
2014,09,20,10,03,18.10
2014,09,20,10,04,18.10
2014,09,20,10,05,18.10
2014,09,20,10,06,18.10
2014,09,20,10,07,18.10
2014,09,20,10,08,18.00
2014,09,20,10,09,18.00
2014,09,20,10,10,17.90
2014,09,20,10,11,18.00
2014,09,20,10,12,18.00
2014,09,20,10,13,18.00
2014,09,20,10,14,17.90
2014,09,20,10,15,17.90
2014,09,20,10,16,17.80
2014,09,20,10,17,17.80
2014,09,20,10,18,17.80
2014,09,20,10,19,17.80
2014,09,20,10,20,17.90
2014,09,20,10,21,17.90
2014,09,20,10,22,17.90
2014,09,20,10,23,17.90
2014,09,20,10,24,17.90
2014,09,20,10,25,17.90
2014,09,20,10,26,17.90
2014,09,20,10,27,18.00
2014,09,20,10,28,18.10
2014,09,20,10,29,18.10
2014,09,20,10,30,18.10
2014,09,20,10,31,18.10
2014,09,20,10,32,18.20
2014,09,20,10,33,18.20
2014,09,20,10,34,18.30
2014,09,20,10,35,18.30
2014,09,20,10,36,18.30
2014,09,20,10,37,18.40
2014,09,20,10,38,18.40
2014,09,20,10,39,18.50
2014,09,20,10,40,18.60
2014,09,20,10,41,18.70
2014,09,20,10,42,18.70
2014,09,20,10,43,18.70
2014,09,20,10,44,18.80
2014,09,20,10,45,18.80
2014,09,20,10,46,18.90
2014,09,20,10,47,19.00
2014,09,20,10,48,19.10
2014,09,20,10,49,19.20
2014,09,20,10,50,19.20
2014,09,20,10,51,19.10
2014,09,20,10,52,19.00
2014,09,20,10,53,19.00
2014,09,20,10,54,18.90
2014,09,20,10,55,19.00
2014,09,20,10,56,19.00
2014,09,20,10,57,19.10
2014,09,20,10,58,19.10
2014,09,20,10,59,19.10
2014,09,20,11,00,19.00
2014,09,20,11,01,18.90
2014,09,20,11,02,18.90
2014,09,20,11,03,18.90
2014,09,20,11,04,19.00
2014,09,20,11,05,19.10
2014,09,20,11,06,19.10
2014,09,20,11,07,19.20
2014,09,20,11,08,19.30
2014,09,20,11,09,19.40
2014,09,20,11,10,19.50
2014,09,20,11,11,19.50
2014,09,20,11,12,19.60
2014,09,20,11,13,19.60
2014,09,20,11,14,19.70
2014,09,20,11,15,19.70
2014,09,20,11,16,19.70
2014,09,20,11,17,19.60
2014,09,20,11,18,19.70
2014,09,20,11,19,19.70
2014,09,20,11,20,19.60
2014,09,20,11,21,19.70
2014,09,20,11,22,19.60
2014,09,20,11,23,19.60
2014,09,20,11,24,19.50
2014,09,20,11,25,19.50
2014,09,20,11,26,19.50
2014,09,20,11,27,19.50
2014,09,20,11,28,19.40
2014,09,20,11,29,19.40
2014,09,20,11,30,19.40
2014,09,20,11,31,19.30
2014,09,20,11,32,19.30
2014,09,20,11,33,19.30
2014,09,20,11,34,19.30
2014,09,20,11,35,19.30
2014,09,20,11,36,19.40
2014,09,20,11,37,19.50
2014,09,20,11,38,19.50
2014,09,20,11,39,19.40
2014,09,20,11,40,19.40
2014,09,20,11,41,19.40
2014,09,20,11,42,19.30
2014,09,20,11,43,19.30
2014,09,20,11,44,19.30
2014,09,20,11,45,19.20
2014,09,20,11,46,19.20
2014,09,20,11,47,19.20
2014,09,20,11,48,19.20
2014,09,20,11,49,19.20
2014,09,20,11,50,19.30
2014,09,20,11,51,19.40
2014,09,20,11,52,19.40
2014,09,20,11,53,19.40
2014,09,20,11,54,19.40
2014,09,20,11,55,19.40
2014,09,20,11,56,19.50
2014,09,20,11,57,19.50
2014,09,20,11,58,19.50
2014,09,20,11,59,19.60
2014,09,20,12,00,19.60
2014,09,20,12,01,19.50
2014,09,20,12,02,19.50
2014,09,20,12,03,19.60
2014,09,20,12,04,19.60
2014,09,20,12,05,19.60
2014,09,20,12,06,19.60
2014,09,20,12,07,19.60
2014,09,20,12,08,19.70
2014,09,20,12,09,19.70
2014,09,20,12,10,19.70
2014,09,20,12,11,19.70
2014,09,20,12,12,19.80
2014,09,20,12,13,19.70
2014,09,20,12,14,19.70
2014,09,20,12,15,19.70
2014,09,20,12,16,19.70
2014,09,20,12,17,19.70
2014,09,20,12,18,19.70
2014,09,20,12,19,19.70
2014,09,20,12,20,19.70
2014,09,20,12,21,19.80
2014,09,20,12,22,19.80
2014,09,20,12,23,19.90
2014,09,20,12,24,19.90
2014,09,20,12,25,19.90
2014,09,20,12,26,19.90
2014,09,20,12,27,19.90
2014,09,20,12,28,19.80
2014,09,20,12,29,19.80
2014,09,20,12,30,19.80
2014,09,20,12,31,19.80
2014,09,20,12,32,19.80
2014,09,20,12,33,19.80
2014,09,20,12,34,19.80
2014,09,20,12,35,19.80
2014,09,20,12,36,19.80
2014,09,20,12,37,19.90
2014,09,20,12,38,19.90
2014,09,20,12,39,20.00
2014,09,20,12,40,20.00
2014,09,20,12,41,20.10
2014,09,20,12,42,20.10
2014,09,20,12,43,20.10
2014,09,20,12,44,20.10
2014,09,20,12,45,20.10
2014,09,20,12,46,20.20
2014,09,20,12,47,20.30
2014,09,20,12,48,20.30
2014,09,20,12,49,20.30
2014,09,20,12,50,20.30
2014,09,20,12,51,20.30
2014,09,20,12,52,20.30
2014,09,20,12,53,20.30
2014,09,20,12,54,20.30
2014,09,20,12,55,20.30
2014,09,20,12,56,20.20
2014,09,20,12,57,20.20
2014,09,20,12,58,20.30
2014,09,20,12,59,20.30
2014,09,20,13,00,20.20
2014,09,20,13,01,20.20
2014,09,20,13,02,20.20
2014,09,20,13,03,20.20
2014,09,20,13,04,20.30
2014,09,20,13,05,20.40
2014,09,20,13,06,20.40
2014,09,20,13,07,20.40
2014,09,20,13,08,20.30
2014,09,20,13,09,20.30
2014,09,20,13,10,20.20
2014,09,20,13,11,20.20
2014,09,20,13,12,20.20
2014,09,20,13,13,20.30
2014,09,20,13,14,20.30
2014,09,20,13,15,20.40
2014,09,20,13,16,20.40
2014,09,20,13,17,20.40
2014,09,20,13,18,20.40
2014,09,20,13,19,20.40
2014,09,20,13,20,20.40
2014,09,20,13,21,20.30
2014,09,20,13,22,20.30
2014,09,20,13,23,20.30
2014,09,20,13,24,20.30
2014,09,20,13,25,20.30
2014,09,20,13,26,20.40
2014,09,20,13,27,20.40
2014,09,20,13,28,20.50
2014,09,20,13,29,20.50
2014,09,20,13,30,20.60
2014,09,20,13,31,20.60
2014,09,20,13,32,20.70
2014,09,20,13,33,20.70
2014,09,20,13,34,20.70
2014,09,20,13,35,20.60
2014,09,20,13,36,20.60
2014,09,20,13,37,20.60
2014,09,20,13,38,20.50
2014,09,20,13,39,20.50
2014,09,20,13,40,20.50
2014,09,20,13,41,20.50
2014,09,20,13,42,20.50
2014,09,20,13,43,20.50
2014,09,20,13,44,20.40
2014,09,20,13,45,20.40
2014,09,20,13,46,20.50
2014,09,20,13,47,20.50
2014,09,20,13,48,20.70
2014,09,20,13,49,20.70
2014,09,20,13,50,20.80
2014,09,20,13,51,20.80
2014,09,20,13,52,20.80
2014,09,20,13,53,20.70
2014,09,20,13,54,20.60
2014,09,20,13,55,20.70
2014,09,20,13,56,20.70
2014,09,20,13,57,20.70
2014,09,20,13,58,20.70
2014,09,20,13,59,20.70
2014,09,20,14,00,20.70
2014,09,20,14,01,20.70
2014,09,20,14,02,20.70
2014,09,20,14,03,20.70
2014,09,20,14,04,20.70
2014,09,20,14,05,20.70
2014,09,20,14,06,20.70
2014,09,20,14,07,20.60
2014,09,20,14,08,20.60
2014,09,20,14,09,20.60
2014,09,20,14,10,20.60
2014,09,20,14,11,20.70
2014,09,20,14,12,20.70
2014,09,20,14,13,20.80
2014,09,20,14,14,20.90
2014,09,20,14,15,20.90
2014,09,20,14,16,21.00
2014,09,20,14,17,21.10
2014,09,20,14,18,21.20
2014,09,20,14,19,21.20
2014,09,20,14,20,21.20
2014,09,20,14,21,21.20
2014,09,20,14,22,21.20
2014,09,20,14,23,21.30
2014,09,20,14,24,21.30
2014,09,20,14,25,21.30
2014,09,20,14,26,21.30
2014,09,20,14,27,21.30
2014,09,20,14,28,21.20
2014,09,20,14,29,21.20
2014,09,20,14,30,21.20
2014,09,20,14,31,21.30
2014,09,20,14,32,21.30
2014,09,20,14,33,21.30
2014,09,20,14,34,21.40
2014,09,20,14,35,21.40
2014,09,20,14,36,21.40
2014,09,20,14,37,21.40
2014,09,20,14,38,21.40
2014,09,20,14,39,21.30
2014,09,20,14,40,21.30
2014,09,20,14,41,21.30
2014,09,20,14,42,21.30
2014,09,20,14,43,21.30
2014,09,20,14,44,21.30
2014,09,20,14,45,21.30
2014,09,20,14,46,21.30
2014,09,20,14,47,21.30
2014,09,20,14,48,21.40
2014,09,20,14,49,21.40
2014,09,20,14,50,21.50
2014,09,20,14,51,21.50
2014,09,20,14,52,21.50
2014,09,20,14,53,21.60
2014,09,20,14,54,21.60
2014,09,20,14,55,21.50
2014,09,20,14,56,21.50
2014,09,20,14,57,21.50
2014,09,20,14,58,21.50
2014,09,20,14,59,21.60
2014,09,20,15,00,21.50
2014,09,20,15,01,21.50
2014,09,20,15,02,21.60
2014,09,20,15,03,21.60
2014,09,20,15,04,21.70
2014,09,20,15,05,21.70
2014,09,20,15,06,21.70
2014,09,20,15,07,21.80
2014,09,20,15,08,21.80
2014,09,20,15,09,21.80
2014,09,20,15,10,21.80
2014,09,20,15,11,21.80
2014,09,20,15,12,21.80
2014,09,20,15,13,21.80
2014,09,20,15,14,21.80
2014,09,20,15,15,21.80
2014,09,20,15,16,21.80
2014,09,20,15,17,21.80
2014,09,20,15,18,21.70
2014,09,20,15,19,21.70
2014,09,20,15,20,21.70
2014,09,20,15,21,21.70
2014,09,20,15,22,21.70
2014,09,20,15,23,21.80
2014,09,20,15,24,21.80
2014,09,20,15,25,21.80
2014,09,20,15,26,21.80
2014,09,20,15,27,21.80
2014,09,20,15,28,21.70
2014,09,20,15,29,21.70
2014,09,20,15,30,21.70
2014,09,20,15,31,21.70
2014,09,20,15,32,21.70
2014,09,20,15,33,21.70
2014,09,20,15,34,21.80
2014,09,20,15,35,21.90
2014,09,20,15,36,21.90
2014,09,20,15,37,21.90
2014,09,20,15,38,21.80
2014,09,20,15,39,21.80
2014,09,20,15,40,21.80
2014,09,20,15,41,21.80
2014,09,20,15,42,21.80
2014,09,20,15,43,21.80
2014,09,20,15,44,21.90
2014,09,20,15,45,21.90
2014,09,20,15,46,22.00
2014,09,20,15,47,22.00
2014,09,20,15,48,22.10
2014,09,20,15,49,22.10
2014,09,20,15,50,22.20
2014,09,20,15,51,22.20
2014,09,20,15,52,22.10
2014,09,20,15,53,22.10
2014,09,20,15,54,22.10
2014,09,20,15,55,22.10
2014,09,20,15,56,22.10
2014,09,20,15,57,22.10
2014,09,20,15,58,22.10
2014,09,20,15,59,22.10
2014,09,20,16,00,22.10
2014,09,20,16,01,22.20
2014,09,20,16,02,22.10
2014,09,20,16,03,22.20
2014,09,20,16,04,22.20
2014,09,20,16,05,22.30
2014,09,20,16,06,22.30
2014,09,20,16,07,22.30
2014,09,20,16,08,22.30
2014,09,20,16,09,22.30
2014,09,20,16,10,22.30
2014,09,20,16,11,22.30
2014,09,20,16,12,22.30
2014,09,20,16,13,22.30
2014,09,20,16,14,22.20
2014,09,20,16,15,22.10
2014,09,20,16,16,22.10
2014,09,20,16,17,22.10
2014,09,20,16,18,22.00
2014,09,20,16,19,22.00
2014,09,20,16,20,22.00
2014,09,20,16,21,21.90
2014,09,20,16,22,21.90
2014,09,20,16,23,21.90
2014,09,20,16,24,21.90
2014,09,20,16,25,21.90
2014,09,20,16,26,21.90
2014,09,20,16,27,21.90
2014,09,20,16,28,21.90
2014,09,20,16,29,21.90
2014,09,20,16,30,21.90
2014,09,20,16,31,22.00
2014,09,20,16,32,22.10
2014,09,20,16,33,22.10
2014,09,20,16,34,22.10
2014,09,20,16,35,22.10
2014,09,20,16,36,22.10
2014,09,20,16,37,22.10
2014,09,20,16,38,22.20
2014,09,20,16,39,22.20
2014,09,20,16,40,22.20
2014,09,20,16,41,22.20
2014,09,20,16,42,22.20
2014,09,20,16,43,22.20
2014,09,20,16,44,22.20
2014,09,20,16,45,22.20
2014,09,20,16,46,22.20
2014,09,20,16,47,22.30
2014,09,20,16,48,22.30
2014,09,20,16,49,22.40
2014,09,20,16,50,22.40
2014,09,20,16,51,22.50
2014,09,20,16,52,22.50
2014,09,20,16,53,22.50
2014,09,20,16,54,22.50
2014,09,20,16,55,22.50
2014,09,20,16,56,22.50
2014,09,20,16,57,22.40
2014,09,20,16,58,22.40
2014,09,20,16,59,22.30
2014,09,20,17,00,22.30
2014,09,20,17,01,22.30
2014,09,20,17,02,22.30
2014,09,20,17,03,22.30
2014,09,20,17,04,22.30
2014,09,20,17,05,22.30
2014,09,20,17,06,22.30
2014,09,20,17,07,22.30
2014,09,20,17,08,22.30
2014,09,20,17,09,22.40
2014,09,20,17,10,22.40
2014,09,20,17,11,22.40
2014,09,20,17,12,22.40
2014,09,20,17,13,22.40
2014,09,20,17,14,22.40
2014,09,20,17,15,22.40
2014,09,20,17,16,22.40
2014,09,20,17,17,22.40
2014,09,20,17,18,22.40
2014,09,20,17,19,22.40